Time,TemperatureF,DewpointF,PressureIn,WindDirection,WindDirectionDegrees,WindSpeedMPH,WindSpeedGustMPH,Humidity,HourlyPrecipIn,Conditions,Clouds,dailyrainin,SolarRadiationWatts/m^2,SoftwareType,DateUTC
2013-07-12 00:01:00,75.0,72.1,29.89,WSW,238,0.0,1.0,91,0.00,,,0.00,0.0,meteohub,2013-07-12 04:01:00,
2013-07-12 00:03:00,75.0,72.1,29.89,WSW,238,0.0,1.0,91,0.00,,,0.00,0.0,meteohub,2013-07-12 04:03:00,
2013-07-12 00:08:00,75.2,72.3,29.89,South,183,0.0,0.0,91,0.00,,,0.00,0.0,meteohub,2013-07-12 04:08:00,
2013-07-12 00:13:00,75.4,72.5,29.89,SE,142,0.0,4.0,91,0.00,,,0.00,0.0,meteohub,2013-07-12 04:13:00,
2013-07-12 00:18:00,75.4,72.3,29.89,SE,142,0.0,4.0,90,0.00,,,0.00,0.0,meteohub,2013-07-12 04:18:00,
2013-07-12 00:23:00,75.6,72.5,29.89,SE,142,0.0,4.0,90,0.00,,,0.00,0.0,meteohub,2013-07-12 04:23:00,
2013-07-12 00:28:00,75.6,72.5,29.89,SE,141,0.0,1.0,90,0.00,,,0.00,0.0,meteohub,2013-07-12 04:28:00,
2013-07-12 00:33:00,75.7,72.7,29.89,South,187,0.0,2.0,90,0.00,,,0.00,0.0,meteohub,2013-07-12 04:33:00,
2013-07-12 00:38:00,75.7,72.7,29.89,WSW,238,0.0,7.0,90,0.00,,,0.00,0.0,meteohub,2013-07-12 04:38:00,
2013-07-12 00:43:00,75.7,72.7,29.89,WSW,238,0.0,7.0,90,0.00,,,0.00,0.0,meteohub,2013-07-12 04:43:00,
2013-07-12 00:48:00,75.7,72.7,29.89,WSW,238,0.0,3.0,90,0.00,,,0.00,0.0,meteohub,2013-07-12 04:48:00,
2013-07-12 00:53:00,75.7,72.7,29.88,WSW,238,0.0,3.0,90,0.00,,,0.00,0.0,meteohub,2013-07-12 04:53:00,
2013-07-12 00:58:00,75.7,72.7,29.88,WSW,238,0.0,1.0,90,0.00,,,0.00,0.0,meteohub,2013-07-12 04:58:00,
2013-07-12 01:03:00,75.6,72.5,29.88,WSW,238,0.0,1.0,90,0.00,,,0.00,0.0,meteohub,2013-07-12 05:03:00,
2013-07-12 01:08:00,75.6,72.5,29.88,SW,236,0.0,1.0,90,0.00,,,0.00,0.0,meteohub,2013-07-12 05:08:00,
2013-07-12 01:13:00,75.6,72.7,29.88,SW,236,0.0,1.0,91,0.00,,,0.00,0.0,meteohub,2013-07-12 05:13:00,
2013-07-12 01:18:00,75.4,72.5,29.88,SSE,165,0.0,1.0,91,0.00,,,0.00,0.0,meteohub,2013-07-12 05:18:00,
2013-07-12 01:23:00,75.6,72.7,29.88,SSE,150,0.0,2.0,91,0.00,,,0.00,0.0,meteohub,2013-07-12 05:23:00,
2013-07-12 01:28:00,75.6,72.7,29.88,SSE,150,0.0,3.0,91,0.00,,,0.00,0.0,meteohub,2013-07-12 05:28:00,
2013-07-12 01:33:00,75.4,72.5,29.88,SSE,150,0.0,3.0,91,0.00,,,0.00,0.0,meteohub,2013-07-12 05:33:00,
2013-07-12 01:38:00,75.4,72.5,29.88,SSE,150,0.0,3.0,91,0.00,,,0.00,0.0,meteohub,2013-07-12 05:38:00,
2013-07-12 01:43:00,75.4,72.5,29.89,SSE,167,0.0,1.0,91,0.00,,,0.00,0.0,meteohub,2013-07-12 05:43:00,
2013-07-12 01:48:00,75.4,72.5,29.88,SSE,167,0.0,2.0,91,0.00,,,0.00,0.0,meteohub,2013-07-12 05:48:00,
2013-07-12 01:53:00,75.2,72.3,29.88,SSE,167,0.0,2.0,91,0.00,,,0.00,0.0,meteohub,2013-07-12 05:53:00,
2013-07-12 01:58:00,75.2,72.7,29.88,SSE,155,0.0,2.0,92,0.00,,,0.00,0.0,meteohub,2013-07-12 05:58:00,
2013-07-12 02:03:00,75.2,72.7,29.88,SSE,155,0.0,3.0,92,0.00,,,0.00,0.0,meteohub,2013-07-12 06:03:00,
2013-07-12 02:08:00,75.2,72.7,29.88,South,176,0.0,3.0,92,0.00,,,0.00,0.0,meteohub,2013-07-12 06:08:00,
2013-07-12 02:13:00,75.2,72.7,29.88,South,177,0.0,3.0,92,0.00,,,0.00,0.0,meteohub,2013-07-12 06:13:00,
2013-07-12 02:18:00,75.2,72.7,29.88,South,175,0.0,3.0,92,0.00,,,0.00,0.0,meteohub,2013-07-12 06:18:00,
2013-07-12 02:23:00,75.2,72.7,29.87,South,176,0.0,3.0,92,0.00,,,0.00,0.0,meteohub,2013-07-12 06:23:00,
2013-07-12 02:28:00,75.0,72.5,29.87,South,176,0.0,3.0,92,0.00,,,0.00,0.0,meteohub,2013-07-12 06:28:00,
2013-07-12 02:33:00,75.0,72.5,29.87,South,176,0.0,1.0,92,0.00,,,0.00,0.0,meteohub,2013-07-12 06:33:00,
2013-07-12 02:38:00,75.0,72.5,29.87,South,184,2.0,2.0,92,0.00,,,0.00,0.0,meteohub,2013-07-12 06:38:00,
2013-07-12 02:43:00,75.0,72.9,29.87,South,184,0.0,1.0,93,0.00,,,0.00,0.0,meteohub,2013-07-12 06:43:00,
2013-07-12 02:48:00,75.0,72.9,29.86,South,184,0.0,2.0,93,0.00,,,0.00,0.0,meteohub,2013-07-12 06:48:00,
2013-07-12 02:53:00,75.0,72.9,29.87,South,184,0.0,2.0,93,0.00,,,0.00,0.0,meteohub,2013-07-12 06:53:00,
2013-07-12 02:58:00,75.0,72.9,29.87,South,184,1.0,1.0,93,0.00,,,0.00,0.0,meteohub,2013-07-12 06:58:00,
2013-07-12 03:03:00,75.0,72.9,29.87,South,184,0.0,1.0,93,0.00,,,0.00,0.0,meteohub,2013-07-12 07:03:00,
2013-07-12 03:08:00,75.0,72.9,29.87,South,185,0.0,1.0,93,0.00,,,0.00,0.0,meteohub,2013-07-12 07:08:00,
2013-07-12 03:13:00,75.0,72.9,29.87,SSE,157,0.0,2.0,93,0.00,,,0.00,0.0,meteohub,2013-07-12 07:13:00,
2013-07-12 03:18:00,75.0,72.9,29.86,SSE,157,0.0,3.0,93,0.00,,,0.00,0.0,meteohub,2013-07-12 07:18:00,
2013-07-12 03:23:00,75.0,72.9,29.86,SSE,157,0.0,3.0,93,0.00,,,0.00,0.0,meteohub,2013-07-12 07:23:00,
2013-07-12 03:28:00,75.0,72.9,29.86,SSE,157,0.0,3.0,93,0.00,,,0.00,0.0,meteohub,2013-07-12 07:28:00,
2013-07-12 03:33:00,75.0,72.9,29.86,SSE,157,0.0,0.0,93,0.00,,,0.00,0.0,meteohub,2013-07-12 07:33:00,
2013-07-12 03:38:00,75.0,72.9,29.86,SSE,157,0.0,1.0,93,0.00,,,0.00,0.0,meteohub,2013-07-12 07:38:00,
2013-07-12 03:43:00,74.8,72.7,29.86,SSE,157,0.0,1.0,93,0.00,,,0.00,0.0,meteohub,2013-07-12 07:43:00,
2013-07-12 03:48:00,74.8,72.7,29.86,SSE,157,0.0,1.0,93,0.00,,,0.00,0.0,meteohub,2013-07-12 07:48:00,
2013-07-12 03:53:00,74.7,72.5,29.85,SSE,157,0.0,0.0,93,0.00,,,0.00,0.0,meteohub,2013-07-12 07:53:00,
2013-07-12 03:58:00,74.7,72.5,29.86,SSE,157,0.0,0.0,93,0.00,,,0.00,0.0,meteohub,2013-07-12 07:58:00,
2013-07-12 04:03:00,74.7,72.9,29.86,SSE,157,0.0,1.0,94,0.00,,,0.00,0.0,meteohub,2013-07-12 08:03:00,
2013-07-12 04:08:00,74.7,72.9,29.85,SSE,157,0.0,1.0,94,0.00,,,0.00,0.0,meteohub,2013-07-12 08:08:00,
2013-07-12 04:13:00,74.5,72.7,29.85,SSE,157,0.0,1.0,94,0.00,,,0.00,0.0,meteohub,2013-07-12 08:13:00,
2013-07-12 04:18:00,74.5,72.7,29.85,SSE,157,0.0,2.0,94,0.00,,,0.00,0.0,meteohub,2013-07-12 08:18:00,
2013-07-12 04:23:00,74.5,72.7,29.85,SSE,148,0.0,2.0,94,0.00,,,0.00,0.0,meteohub,2013-07-12 08:23:00,
2013-07-12 04:28:00,74.5,72.7,29.85,SSE,148,0.0,4.0,94,0.00,,,0.00,0.0,meteohub,2013-07-12 08:28:00,
2013-07-12 04:33:00,74.5,72.7,29.85,SSE,148,0.0,4.0,94,0.00,,,0.00,0.0,meteohub,2013-07-12 08:33:00,
2013-07-12 04:38:00,74.5,72.7,29.85,SE,146,0.0,4.0,94,0.00,,,0.00,0.0,meteohub,2013-07-12 08:38:00,
2013-07-12 04:43:00,74.5,72.7,29.85,SE,146,0.0,4.0,94,0.00,,,0.00,0.0,meteohub,2013-07-12 08:43:00,
2013-07-12 04:48:00,74.5,72.7,29.85,SE,146,0.0,4.0,94,0.00,,,0.00,0.0,meteohub,2013-07-12 08:48:00,
2013-07-12 04:53:00,74.5,72.7,29.84,SE,146,0.0,4.0,94,0.00,,,0.00,0.0,meteohub,2013-07-12 08:53:00,
2013-07-12 04:58:00,74.5,72.7,29.84,SE,146,0.0,1.0,94,0.00,,,0.00,0.0,meteohub,2013-07-12 08:58:00,
2013-07-12 05:03:00,74.5,72.7,29.84,SE,146,0.0,0.0,94,0.00,,,0.00,0.0,meteohub,2013-07-12 09:03:00,
2013-07-12 05:08:00,74.5,72.7,29.84,SE,146,0.0,1.0,94,0.00,,,0.00,0.0,meteohub,2013-07-12 09:08:00,
2013-07-12 05:13:00,74.3,72.5,29.85,SE,146,0.0,1.0,94,0.00,,,0.00,0.0,meteohub,2013-07-12 09:13:00,
2013-07-12 05:18:00,74.3,72.5,29.85,SE,146,0.0,1.0,94,0.00,,,0.00,0.0,meteohub,2013-07-12 09:18:00,
2013-07-12 05:23:00,74.5,72.7,29.85,SE,146,0.0,0.0,94,0.00,,,0.00,0.0,meteohub,2013-07-12 09:23:00,
2013-07-12 05:28:00,74.5,72.7,29.85,SE,146,0.0,0.0,94,0.00,,,0.00,0.0,meteohub,2013-07-12 09:28:00,
2013-07-12 05:33:00,74.5,72.7,29.85,SE,146,0.0,0.0,94,0.00,,,0.00,0.0,meteohub,2013-07-12 09:33:00,
2013-07-12 05:38:00,74.5,72.7,29.85,SE,146,0.0,0.0,94,0.00,,,0.00,0.0,meteohub,2013-07-12 09:38:00,
2013-07-12 05:43:00,74.5,72.7,29.85,SE,146,0.0,0.0,94,0.00,,,0.00,0.0,meteohub,2013-07-12 09:43:00,
2013-07-12 05:48:00,74.5,72.7,29.85,SE,146,0.0,0.0,94,0.00,,,0.00,0.0,meteohub,2013-07-12 09:48:00,
2013-07-12 05:53:00,74.5,72.7,29.85,SE,146,0.0,0.0,94,0.00,,,0.00,0.0,meteohub,2013-07-12 09:53:00,
2013-07-12 05:58:00,74.5,72.7,29.85,SE,146,0.0,0.0,94,0.00,,,0.00,0.0,meteohub,2013-07-12 09:58:00,
2013-07-12 06:03:00,74.5,72.7,29.85,SE,146,0.0,0.0,94,0.00,,,0.00,0.0,meteohub,2013-07-12 10:03:00,
2013-07-12 06:08:00,74.5,72.7,29.85,SE,146,0.0,1.0,94,0.00,,,0.00,0.0,meteohub,2013-07-12 10:08:00,
2013-07-12 06:13:00,74.5,72.7,29.85,SE,146,1.0,1.0,94,0.00,,,0.00,0.0,meteohub,2013-07-12 10:13:00,
2013-07-12 06:18:00,74.7,72.9,29.86,SE,146,0.0,1.0,94,0.00,,,0.00,0.0,meteohub,2013-07-12 10:18:00,
2013-07-12 06:23:00,74.7,72.9,29.85,SE,146,0.0,1.0,94,0.00,,,0.00,0.0,meteohub,2013-07-12 10:23:00,
2013-07-12 06:28:00,74.7,72.9,29.85,SE,146,0.0,1.0,94,0.00,,,0.00,0.0,meteohub,2013-07-12 10:28:00,
2013-07-12 06:33:00,74.7,72.9,29.85,SE,146,0.0,2.0,94,0.00,,,0.00,0.0,meteohub,2013-07-12 10:33:00,
2013-07-12 06:38:00,74.7,72.9,29.85,SE,146,0.0,2.0,94,0.00,,,0.00,0.0,meteohub,2013-07-12 10:38:00,
2013-07-12 06:43:00,74.7,72.9,29.85,SE,146,0.0,2.0,94,0.00,,,0.00,7.0,meteohub,2013-07-12 10:43:00,
2013-07-12 06:48:00,74.7,72.9,29.86,SE,146,0.0,2.0,94,0.00,,,0.00,11.0,meteohub,2013-07-12 10:48:00,
2013-07-12 06:53:00,74.7,72.9,29.86,SE,146,0.0,3.0,94,0.00,,,0.00,12.0,meteohub,2013-07-12 10:53:00,
2013-07-12 06:58:00,74.7,72.9,29.86,SSE,151,2.0,3.0,94,0.00,,,0.00,21.0,meteohub,2013-07-12 10:58:00,
2013-07-12 07:03:00,74.7,72.9,29.86,SSE,150,0.0,3.0,94,0.00,,,0.00,25.0,meteohub,2013-07-12 11:03:00,
2013-07-12 07:08:00,74.7,73.2,29.86,SSE,151,0.0,3.0,95,0.00,,,0.00,21.0,meteohub,2013-07-12 11:08:00,
2013-07-12 07:13:00,74.8,73.2,29.87,SSE,151,0.0,3.0,95,0.00,,,0.00,23.0,meteohub,2013-07-12 11:13:00,
2013-07-12 07:18:00,74.8,73.2,29.87,SSE,151,0.0,2.0,95,0.00,,,0.00,26.0,meteohub,2013-07-12 11:18:00,
2013-07-12 07:23:00,74.8,73.2,29.87,SSE,151,0.0,2.0,95,0.00,,,0.00,30.0,meteohub,2013-07-12 11:23:00,
2013-07-12 07:28:00,74.8,73.2,29.87,SSE,151,0.0,0.0,95,0.00,,,0.00,30.0,meteohub,2013-07-12 11:28:00,
2013-07-12 07:33:00,74.8,73.2,29.87,SSE,151,0.0,0.0,95,0.00,,,0.00,33.0,meteohub,2013-07-12 11:33:00,
2013-07-12 07:38:00,75.0,73.4,29.88,SSE,150,0.0,1.0,95,0.00,,,0.00,35.0,meteohub,2013-07-12 11:38:00,
2013-07-12 07:44:00,75.0,73.4,29.88,SSE,150,0.0,1.0,95,0.00,,,0.00,40.0,meteohub,2013-07-12 11:44:00,
2013-07-12 07:49:00,75.2,73.6,29.88,SSE,150,0.0,3.0,95,0.00,,,0.00,42.0,meteohub,2013-07-12 11:49:00,
2013-07-12 07:54:00,75.4,73.8,29.88,SSE,150,0.0,3.0,95,0.00,,,0.00,47.0,meteohub,2013-07-12 11:54:00,
2013-07-12 07:59:00,75.4,73.6,29.88,SSE,150,0.0,3.0,94,0.00,,,0.00,65.0,meteohub,2013-07-12 11:59:00,
2013-07-12 08:04:00,75.6,73.8,29.88,SSE,150,0.0,1.0,94,0.00,,,0.00,84.0,meteohub,2013-07-12 12:04:00,
2013-07-12 08:09:00,75.6,73.8,29.88,SSE,151,0.0,0.0,94,0.00,,,0.00,86.0,meteohub,2013-07-12 12:09:00,
2013-07-12 08:14:00,75.7,73.9,29.88,SSE,151,0.0,0.0,94,0.00,,,0.00,86.0,meteohub,2013-07-12 12:14:00,
2013-07-12 08:19:00,75.7,73.9,29.89,SSE,151,0.0,2.0,94,0.00,,,0.00,81.0,meteohub,2013-07-12 12:19:00,
2013-07-12 08:24:00,75.9,73.8,29.88,SSE,150,0.0,2.0,93,0.00,,,0.00,83.0,meteohub,2013-07-12 12:24:00,
2013-07-12 08:29:00,75.9,73.8,29.89,SSE,150,0.0,2.0,93,0.00,,,0.00,93.0,meteohub,2013-07-12 12:29:00,
2013-07-12 08:34:00,76.3,74.1,29.89,SSE,151,0.0,2.0,93,0.00,,,0.00,77.0,meteohub,2013-07-12 12:34:00,
2013-07-12 08:39:00,76.3,74.1,29.89,SSE,151,0.0,2.0,93,0.00,,,0.00,93.0,meteohub,2013-07-12 12:39:00,
2013-07-12 08:44:00,76.5,74.3,29.89,SE,144,0.0,2.0,93,0.00,,,0.00,105.0,meteohub,2013-07-12 12:44:00,
2013-07-12 08:49:00,76.5,73.9,29.89,SE,144,0.0,4.0,92,0.00,,,0.00,111.0,meteohub,2013-07-12 12:49:00,
2013-07-12 08:54:00,76.6,74.1,29.88,SSE,159,1.0,4.0,92,0.00,,,0.00,128.0,meteohub,2013-07-12 12:54:00,
2013-07-12 08:59:00,76.6,74.1,29.88,SSE,163,0.0,4.0,92,0.00,,,0.00,156.0,meteohub,2013-07-12 12:59:00,
2013-07-12 09:04:00,76.8,74.3,29.88,South,185,0.0,3.0,92,0.00,,,0.00,163.0,meteohub,2013-07-12 13:04:00,
2013-07-12 09:09:00,77.0,74.5,29.88,South,184,0.0,5.0,92,0.00,,,0.00,167.0,meteohub,2013-07-12 13:09:00,
2013-07-12 09:14:00,77.4,74.8,29.88,South,183,0.0,5.0,92,0.00,,,0.00,190.0,meteohub,2013-07-12 13:14:00,
2013-07-12 09:19:00,77.5,74.7,29.89,SSE,163,0.0,5.0,91,0.00,,,0.00,200.0,meteohub,2013-07-12 13:19:00,
2013-07-12 09:24:00,77.7,74.8,29.89,SSE,163,0.0,5.0,91,0.00,,,0.00,218.0,meteohub,2013-07-12 13:24:00,
2013-07-12 09:29:00,78.1,75.2,29.89,SSE,163,0.0,5.0,91,0.00,,,0.00,202.0,meteohub,2013-07-12 13:29:00,
2013-07-12 09:34:00,78.3,75.0,29.89,SSE,163,1.0,3.0,90,0.00,,,0.00,195.0,meteohub,2013-07-12 13:34:00,
2013-07-12 09:39:00,78.4,75.2,29.89,SSE,163,0.0,3.0,90,0.00,,,0.00,195.0,meteohub,2013-07-12 13:39:00,
2013-07-12 09:44:00,78.6,75.0,29.89,SSE,163,0.0,3.0,89,0.00,,,0.00,213.0,meteohub,2013-07-12 13:44:00,
2013-07-12 09:49:00,78.6,75.0,29.89,West,275,0.0,2.0,89,0.00,,,0.00,248.0,meteohub,2013-07-12 13:49:00,
2013-07-12 09:54:00,79.0,75.4,29.89,West,275,0.0,3.0,89,0.00,,,0.00,265.0,meteohub,2013-07-12 13:54:00,
2013-07-12 09:59:00,79.2,75.6,29.89,West,275,0.0,3.0,89,0.00,,,0.00,311.0,meteohub,2013-07-12 13:59:00,
2013-07-12 10:04:00,79.5,75.6,29.89,South,177,1.0,3.0,88,0.00,,,0.00,316.0,meteohub,2013-07-12 14:04:00,
2013-07-12 10:09:00,79.9,75.9,29.89,West,261,3.0,3.0,88,0.00,,,0.00,302.0,meteohub,2013-07-12 14:09:00,
2013-07-12 10:14:00,80.1,75.9,29.89,WSW,257,0.0,3.0,87,0.00,,,0.00,339.0,meteohub,2013-07-12 14:14:00,
2013-07-12 10:19:00,80.2,75.7,29.89,SSE,168,0.0,4.0,86,0.00,,,0.00,677.0,meteohub,2013-07-12 14:19:00,
2013-07-12 10:24:00,80.8,76.5,29.89,WNW,288,1.0,4.0,87,0.00,,,0.00,520.0,meteohub,2013-07-12 14:24:00,
2013-07-12 10:29:00,81.0,76.5,29.89,West,273,2.0,6.0,86,0.00,,,0.00,285.0,meteohub,2013-07-12 14:29:00,
2013-07-12 10:34:00,81.0,76.5,29.89,WNW,291,1.0,7.0,86,0.00,,,0.00,385.0,meteohub,2013-07-12 14:34:00,
2013-07-12 10:39:00,81.0,76.5,29.89,WSW,254,0.0,8.0,86,0.00,,,0.00,381.0,meteohub,2013-07-12 14:39:00,
2013-07-12 10:44:00,81.5,76.3,29.89,NW,308,3.0,8.0,84,0.00,,,0.00,638.0,meteohub,2013-07-12 14:44:00,
2013-07-12 10:49:00,81.5,76.3,29.89,NW,319,0.0,5.0,84,0.00,,,0.00,399.0,meteohub,2013-07-12 14:49:00,
2013-07-12 10:54:00,82.0,76.6,29.89,WNW,291,0.0,5.0,84,0.00,,,0.00,545.0,meteohub,2013-07-12 14:54:00,
2013-07-12 10:59:00,82.4,77.0,29.89,WNW,288,3.0,5.0,84,0.00,,,0.00,446.0,meteohub,2013-07-12 14:59:00,
2013-07-12 11:04:00,82.8,77.0,29.89,WNW,286,4.0,5.0,83,0.00,,,0.00,701.0,meteohub,2013-07-12 15:04:00,
2013-07-12 11:09:00,83.7,76.8,29.88,WNW,286,0.0,5.0,80,0.00,,,0.00,1039.0,meteohub,2013-07-12 15:09:00,
2013-07-12 11:14:00,83.5,75.9,29.88,WNW,287,2.0,5.0,78,0.00,,,0.00,381.0,meteohub,2013-07-12 15:14:00,
2013-07-12 11:19:00,83.1,76.6,29.88,WNW,287,0.0,5.0,81,0.00,,,0.00,471.0,meteohub,2013-07-12 15:19:00,
2013-07-12 11:24:00,83.7,76.8,29.88,South,169,0.0,4.0,80,0.00,,,0.00,216.0,meteohub,2013-07-12 15:24:00,
2013-07-12 11:29:00,83.7,76.1,29.88,SSE,164,0.0,4.0,78,0.00,,,0.00,167.0,meteohub,2013-07-12 15:29:00,
2013-07-12 11:34:00,83.5,76.3,29.88,SSE,164,0.0,2.0,79,0.00,,,0.00,188.0,meteohub,2013-07-12 15:34:00,
2013-07-12 11:39:00,83.1,75.9,29.88,South,187,0.0,3.0,79,0.00,,,0.00,251.0,meteohub,2013-07-12 15:39:00,
2013-07-12 11:44:00,83.3,76.5,29.88,South,187,0.0,4.0,80,0.00,,,0.00,392.0,meteohub,2013-07-12 15:44:00,
2013-07-12 11:49:00,83.5,76.3,29.88,SE,137,0.0,4.0,79,0.00,,,0.00,272.0,meteohub,2013-07-12 15:49:00,
2013-07-12 11:54:00,83.5,75.9,29.88,SE,137,1.0,4.0,78,0.00,,,0.00,306.0,meteohub,2013-07-12 15:54:00,
2013-07-12 11:59:00,83.3,76.5,29.88,SE,137,0.0,3.0,80,0.00,,,0.00,264.0,meteohub,2013-07-12 15:59:00,
2013-07-12 12:04:00,83.3,76.5,29.87,SE,137,0.0,3.0,80,0.00,,,0.00,188.0,meteohub,2013-07-12 16:04:00,
2013-07-12 12:09:00,83.1,76.3,29.87,SE,128,0.0,2.0,80,0.00,,,0.00,188.0,meteohub,2013-07-12 16:09:00,
2013-07-12 12:14:00,82.9,76.5,29.88,SSE,157,0.0,4.0,81,0.00,,,0.00,332.0,meteohub,2013-07-12 16:14:00,
2013-07-12 12:19:00,83.1,76.6,29.88,SSE,158,0.0,4.0,81,0.00,,,0.00,425.0,meteohub,2013-07-12 16:19:00,
2013-07-12 12:24:00,83.3,76.1,29.87,SSE,158,0.0,4.0,79,0.00,,,0.00,396.0,meteohub,2013-07-12 16:24:00,
2013-07-12 12:29:00,83.5,77.0,29.87,East,100,0.0,3.0,81,0.00,,,0.00,244.0,meteohub,2013-07-12 16:29:00,
2013-07-12 12:34:00,83.5,77.0,29.87,East,100,0.0,1.0,81,0.00,,,0.00,160.0,meteohub,2013-07-12 16:34:00,
2013-07-12 12:39:00,83.1,76.6,29.87,East,100,0.0,1.0,81,0.00,,,0.00,121.0,meteohub,2013-07-12 16:39:00,
2013-07-12 12:44:00,82.9,76.8,29.87,East,100,0.0,2.0,82,0.00,,,0.00,95.0,meteohub,2013-07-12 16:44:00,
2013-07-12 12:49:00,82.6,76.8,29.87,East,100,0.0,2.0,83,0.00,,,0.00,74.0,meteohub,2013-07-12 16:49:00,
2013-07-12 12:54:00,82.0,77.0,29.87,East,99,0.0,2.0,85,0.00,,,0.00,54.0,meteohub,2013-07-12 16:54:00,
2013-07-12 13:00:00,81.3,76.6,29.87,East,100,0.0,1.0,86,0.00,,,0.00,70.0,meteohub,2013-07-12 17:00:00,
2013-07-12 13:05:00,81.1,76.5,29.86,East,100,0.0,1.0,86,0.00,,,0.00,149.0,meteohub,2013-07-12 17:05:00,
2013-07-12 13:10:00,81.1,76.5,29.87,East,100,0.0,1.0,86,0.00,,,0.00,113.0,meteohub,2013-07-12 17:10:00,
2013-07-12 13:16:00,81.1,77.2,29.87,East,99,0.0,1.0,88,0.00,,,0.00,111.0,meteohub,2013-07-12 17:16:00,
2013-07-12 13:21:00,81.1,76.8,29.87,East,100,0.0,1.0,87,0.00,,,0.00,209.0,meteohub,2013-07-12 17:21:00,
2013-07-12 13:26:00,81.3,77.0,29.87,East,100,0.0,0.0,87,0.00,,,0.00,297.0,meteohub,2013-07-12 17:26:00,
2013-07-12 13:31:00,81.3,76.6,29.86,East,100,0.0,1.0,86,0.00,,,0.00,330.0,meteohub,2013-07-12 17:31:00,
2013-07-12 13:36:00,81.7,76.6,29.86,East,100,0.0,1.0,85,0.00,,,0.00,374.0,meteohub,2013-07-12 17:36:00,
2013-07-12 13:41:00,82.0,76.3,29.86,East,100,0.0,1.0,83,0.00,,,0.00,313.0,meteohub,2013-07-12 17:41:00,
2013-07-12 13:46:00,82.6,76.5,29.86,East,100,0.0,0.0,82,0.00,,,0.00,396.0,meteohub,2013-07-12 17:46:00,
2013-07-12 13:51:00,83.1,77.7,29.86,East,99,1.0,0.0,84,0.00,,,0.00,380.0,meteohub,2013-07-12 17:51:00,
2013-07-12 13:57:00,83.1,77.4,29.86,East,99,0.0,3.0,83,0.00,,,0.00,272.0,meteohub,2013-07-12 17:57:00,
2013-07-12 14:02:00,82.4,77.4,29.87,ENE,61,0.0,3.0,85,0.00,,,0.00,93.0,meteohub,2013-07-12 18:02:00,
2013-07-12 14:07:00,81.3,76.6,29.87,NE,51,0.0,6.0,86,0.00,,,0.00,62.0,meteohub,2013-07-12 18:07:00,
2013-07-12 14:12:00,80.2,76.1,29.87,NE,49,2.0,6.0,87,0.00,,,0.00,95.0,meteohub,2013-07-12 18:12:00,
2013-07-12 14:17:00,79.9,75.9,29.87,NE,49,1.0,5.0,88,0.00,,,0.00,111.0,meteohub,2013-07-12 18:17:00,
2013-07-12 14:23:00,79.3,76.1,29.87,ENE,57,1.0,5.0,90,0.00,,,0.00,134.0,meteohub,2013-07-12 18:23:00,
2013-07-12 14:28:00,79.0,75.7,29.87,NE,36,3.0,5.0,90,0.00,,,0.00,141.0,meteohub,2013-07-12 18:28:00,
2013-07-12 14:33:00,78.6,75.4,29.86,NE,39,2.0,6.0,90,0.00,,,0.00,267.0,meteohub,2013-07-12 18:33:00,
2013-07-12 14:39:00,78.6,75.7,29.86,NE,42,0.0,6.0,91,0.00,,,0.00,399.0,meteohub,2013-07-12 18:39:00,
2013-07-12 14:44:00,79.5,75.9,29.86,SE,136,0.0,6.0,89,0.00,,,0.00,401.0,meteohub,2013-07-12 18:44:00,
2013-07-12 14:49:00,80.1,75.6,29.86,NE,51,0.0,6.0,86,0.00,,,0.00,450.0,meteohub,2013-07-12 18:49:00,
2013-07-12 14:54:00,80.1,74.8,29.87,ENE,65,1.0,6.0,84,0.00,,,0.00,411.0,meteohub,2013-07-12 18:54:00,
2013-07-12 15:00:00,80.2,75.4,29.86,SE,138,1.0,6.0,85,0.00,,,0.00,490.0,meteohub,2013-07-12 19:00:00,
2013-07-12 15:05:00,80.4,75.6,29.86,ESE,112,0.0,6.0,85,0.00,,,0.00,589.0,meteohub,2013-07-12 19:05:00,
2013-07-12 15:10:00,80.8,75.2,29.86,North,0,1.0,6.0,83,0.00,,,0.00,448.0,meteohub,2013-07-12 19:10:00,
2013-07-12 15:15:00,81.0,75.7,29.87,ENE,68,0.0,4.0,84,0.00,,,0.00,338.0,meteohub,2013-07-12 19:15:00,
2013-07-12 15:21:00,81.1,75.9,29.87,ENE,68,0.0,4.0,84,0.00,,,0.00,374.0,meteohub,2013-07-12 19:21:00,
2013-07-12 15:26:00,81.1,75.6,29.86,ENE,72,0.0,5.0,83,0.00,,,0.00,466.0,meteohub,2013-07-12 19:26:00,
2013-07-12 15:31:00,81.1,75.6,29.87,SE,146,1.0,5.0,83,0.00,,,0.00,248.0,meteohub,2013-07-12 19:31:00,
2013-07-12 15:36:00,81.1,75.6,29.86,SE,128,1.0,5.0,83,0.00,,,0.00,204.0,meteohub,2013-07-12 19:36:00,
2013-07-12 15:41:00,80.8,75.6,29.86,ESE,117,1.0,4.0,84,0.00,,,0.00,183.0,meteohub,2013-07-12 19:41:00,
2013-07-12 15:46:00,80.4,75.6,29.86,SE,146,0.0,4.0,85,0.00,,,0.00,216.0,meteohub,2013-07-12 19:46:00,
2013-07-12 15:51:00,80.2,75.4,29.86,SE,126,1.0,4.0,85,0.00,,,0.00,225.0,meteohub,2013-07-12 19:51:00,
2013-07-12 15:56:00,80.1,75.6,29.86,SE,135,0.0,4.0,86,0.00,,,0.00,209.0,meteohub,2013-07-12 19:56:00,
2013-07-12 16:02:00,80.1,75.9,29.86,SE,134,0.0,3.0,87,0.00,,,0.00,193.0,meteohub,2013-07-12 20:02:00,
2013-07-12 16:07:00,80.1,75.9,29.86,SE,141,1.0,3.0,87,0.00,,,0.00,171.0,meteohub,2013-07-12 20:07:00,
2013-07-12 16:12:00,79.9,75.9,29.86,East,96,1.0,6.0,88,0.00,,,0.00,165.0,meteohub,2013-07-12 20:12:00,
2013-07-12 16:17:00,79.7,75.6,29.87,ESE,121,1.0,6.0,87,0.00,,,0.00,171.0,meteohub,2013-07-12 20:17:00,
2013-07-12 16:22:00,79.5,75.4,29.87,SSE,155,3.0,7.0,87,0.00,,,0.00,172.0,meteohub,2013-07-12 20:22:00,
2013-07-12 16:27:00,79.5,75.4,29.87,SE,137,2.0,7.0,87,0.00,,,0.00,181.0,meteohub,2013-07-12 20:27:00,
2013-07-12 16:32:00,79.5,75.4,29.87,SE,137,0.0,6.0,87,0.00,,,0.00,178.0,meteohub,2013-07-12 20:32:00,
2013-07-12 16:38:00,79.5,75.0,29.86,SE,137,0.0,5.0,86,0.00,,,0.00,155.0,meteohub,2013-07-12 20:38:00,
2013-07-12 16:43:00,79.7,74.8,29.86,SE,137,0.0,5.0,85,0.00,,,0.00,134.0,meteohub,2013-07-12 20:43:00,
2013-07-12 16:48:00,79.7,74.8,29.86,SE,137,0.0,1.0,85,0.00,,,0.00,127.0,meteohub,2013-07-12 20:48:00,
2013-07-12 16:53:00,79.7,74.8,29.86,SE,137,0.0,2.0,85,0.00,,,0.00,125.0,meteohub,2013-07-12 20:53:00,
2013-07-12 16:58:00,79.5,74.3,29.86,SSE,163,0.0,2.0,84,0.00,,,0.00,134.0,meteohub,2013-07-12 20:58:00,
2013-07-12 17:03:00,79.5,74.7,29.85,SE,128,0.0,2.0,85,0.00,,,0.00,155.0,meteohub,2013-07-12 21:03:00,
2013-07-12 17:09:00,79.3,74.5,29.85,South,176,0.0,2.0,85,0.00,,,0.00,181.0,meteohub,2013-07-12 21:09:00,
2013-07-12 17:14:00,79.3,74.8,29.85,South,176,1.0,3.0,86,0.00,,,0.00,202.0,meteohub,2013-07-12 21:14:00,
2013-07-12 17:19:00,79.0,74.8,29.85,SSE,163,0.0,3.0,87,0.00,,,0.00,236.0,meteohub,2013-07-12 21:19:00,
2013-07-12 17:24:00,79.2,75.4,29.85,SSE,163,0.0,3.0,88,0.00,,,0.00,221.0,meteohub,2013-07-12 21:24:00,
2013-07-12 17:29:00,79.2,75.4,29.85,SSW,203,1.0,3.0,88,0.00,,,0.00,204.0,meteohub,2013-07-12 21:29:00,
2013-07-12 17:34:00,79.0,75.4,29.85,SE,143,0.0,5.0,89,0.00,,,0.00,185.0,meteohub,2013-07-12 21:34:00,
2013-07-12 17:39:00,78.6,75.0,29.85,South,175,1.0,5.0,89,0.00,,,0.00,172.0,meteohub,2013-07-12 21:39:00,
2013-07-12 17:44:00,78.6,75.0,29.85,South,178,0.0,5.0,89,0.00,,,0.00,160.0,meteohub,2013-07-12 21:44:00,
2013-07-12 17:49:00,78.6,75.0,29.85,SSE,162,4.0,4.0,89,0.00,,,0.00,186.0,meteohub,2013-07-12 21:49:00,
2013-07-12 17:55:00,78.8,75.2,29.85,South,173,0.0,4.0,89,0.00,,,0.00,176.0,meteohub,2013-07-12 21:55:00,
2013-07-12 18:00:00,79.0,75.4,29.85,SE,144,1.0,4.0,89,0.00,,,0.00,158.0,meteohub,2013-07-12 22:00:00,
2013-07-12 18:05:00,79.0,75.2,29.85,SSE,159,1.0,7.0,88,0.00,,,0.00,132.0,meteohub,2013-07-12 22:05:00,
2013-07-12 18:10:00,79.0,74.8,29.85,SE,134,1.0,7.0,87,0.00,,,0.00,100.0,meteohub,2013-07-12 22:10:00,
2013-07-12 18:15:00,78.6,74.8,29.85,East,95,0.0,7.0,88,0.00,,,0.00,79.0,meteohub,2013-07-12 22:15:00,
2013-07-12 18:22:00,78.6,74.8,29.85,East,95,0.0,5.0,88,0.00,,,0.00,65.0,meteohub,2013-07-12 22:22:00,
2013-07-12 18:27:00,78.4,74.8,29.85,East,95,0.0,5.0,89,0.00,,,0.00,60.0,meteohub,2013-07-12 22:27:00,
2013-07-12 18:32:00,78.3,74.5,29.85,ESE,120,0.0,1.0,88,0.00,,,0.00,62.0,meteohub,2013-07-12 22:32:00,
2013-07-12 18:37:00,77.9,74.1,29.86,SSE,161,3.0,5.0,88,0.00,,,0.00,63.0,meteohub,2013-07-12 22:37:00,
2013-07-12 18:42:00,77.7,73.9,29.86,ESE,108,0.0,5.0,88,0.00,,,0.00,72.0,meteohub,2013-07-12 22:42:00,
2013-07-12 18:47:00,77.5,73.8,29.86,ESE,109,0.0,5.0,88,0.00,,,0.00,74.0,meteohub,2013-07-12 22:47:00,
2013-07-12 18:52:00,77.4,73.9,29.86,SE,134,0.0,5.0,89,0.00,,,0.00,69.0,meteohub,2013-07-12 22:52:00,
2013-07-12 18:57:00,77.2,73.9,29.85,SE,134,0.0,4.0,90,0.01,,,0.01,69.0,meteohub,2013-07-12 22:57:00,
2013-07-12 19:02:00,77.0,73.8,29.86,SE,134,0.0,4.0,90,0.01,,,0.01,63.0,meteohub,2013-07-12 23:02:00,
2013-07-12 19:07:00,76.8,73.9,29.86,SE,134,0.0,4.0,91,0.01,,,0.01,58.0,meteohub,2013-07-12 23:07:00,
2013-07-12 19:12:00,76.6,73.8,29.86,SE,134,0.0,1.0,91,0.01,,,0.01,58.0,meteohub,2013-07-12 23:12:00,
2013-07-12 19:17:00,76.6,74.1,29.85,SE,134,0.0,1.0,92,0.01,,,0.01,53.0,meteohub,2013-07-12 23:17:00,
2013-07-12 19:22:00,76.6,74.1,29.85,SE,134,0.0,1.0,92,0.01,,,0.01,42.0,meteohub,2013-07-12 23:22:00,
2013-07-12 19:27:00,76.6,74.1,29.85,SE,134,0.0,1.0,92,0.01,,,0.01,35.0,meteohub,2013-07-12 23:27:00,
2013-07-12 19:32:00,76.5,74.3,29.85,SE,134,0.0,1.0,93,0.01,,,0.01,25.0,meteohub,2013-07-12 23:32:00,
2013-07-12 19:38:00,76.5,74.3,29.86,SE,134,0.0,1.0,93,0.01,,,0.01,19.0,meteohub,2013-07-12 23:38:00,
2013-07-12 19:43:00,76.3,74.1,29.86,SE,134,0.0,0.0,93,0.01,,,0.01,19.0,meteohub,2013-07-12 23:43:00,
2013-07-12 19:48:00,76.3,74.1,29.86,SE,134,0.0,0.0,93,0.01,,,0.01,18.0,meteohub,2013-07-12 23:48:00,
2013-07-12 19:53:00,76.3,74.1,29.86,SE,134,0.0,0.0,93,0.01,,,0.01,14.0,meteohub,2013-07-12 23:53:00,
2013-07-12 19:58:00,76.1,73.9,29.86,SE,134,0.0,0.0,93,0.00,,,0.01,12.0,meteohub,2013-07-12 23:58:00,
2013-07-12 20:03:00,76.1,73.9,29.86,SE,134,0.0,0.0,93,0.00,,,0.01,12.0,meteohub,2013-07-13 00:03:00,
2013-07-12 20:09:00,76.1,73.9,29.86,SE,134,0.0,0.0,93,0.00,,,0.01,9.0,meteohub,2013-07-13 00:09:00,
2013-07-12 20:14:00,76.1,74.3,29.87,SE,134,0.0,0.0,94,0.00,,,0.01,5.0,meteohub,2013-07-13 00:14:00,
2013-07-12 20:19:00,76.1,74.3,29.87,SE,134,0.0,0.0,94,0.00,,,0.01,0.0,meteohub,2013-07-13 00:19:00,
2013-07-12 20:25:00,76.1,74.3,29.87,SE,134,0.0,0.0,94,0.00,,,0.01,0.0,meteohub,2013-07-13 00:25:00,
2013-07-12 20:30:00,75.9,74.1,29.87,SE,134,0.0,0.0,94,0.00,,,0.01,0.0,meteohub,2013-07-13 00:30:00,
2013-07-12 20:35:00,75.9,74.1,29.87,SE,134,0.0,0.0,94,0.00,,,0.01,0.0,meteohub,2013-07-13 00:35:00,
2013-07-12 20:40:00,75.9,74.1,29.88,SE,134,0.0,0.0,94,0.00,,,0.01,0.0,meteohub,2013-07-13 00:40:00,
2013-07-12 20:45:00,75.7,74.1,29.88,SE,134,0.0,0.0,95,0.00,,,0.01,0.0,meteohub,2013-07-13 00:45:00,
2013-07-12 20:50:00,75.7,74.1,29.88,SE,134,0.0,0.0,95,0.00,,,0.01,0.0,meteohub,2013-07-13 00:50:00,
2013-07-12 20:56:00,75.6,73.9,29.87,SE,134,0.0,0.0,95,0.01,,,0.02,0.0,meteohub,2013-07-13 00:56:00,
2013-07-12 21:01:00,75.4,73.8,29.87,SE,134,0.0,0.0,95,0.01,,,0.02,0.0,meteohub,2013-07-13 01:01:00,
2013-07-12 21:06:00,75.4,73.8,29.87,SE,134,0.0,0.0,95,0.01,,,0.02,0.0,meteohub,2013-07-13 01:06:00,
2013-07-12 21:11:00,75.2,73.6,29.87,SE,134,0.0,0.0,95,0.01,,,0.02,0.0,meteohub,2013-07-13 01:11:00,
2013-07-12 21:16:00,75.0,73.4,29.87,SE,134,0.0,0.0,95,0.01,,,0.02,0.0,meteohub,2013-07-13 01:16:00,
2013-07-12 21:21:00,75.0,73.8,29.87,SE,134,0.0,0.0,96,0.01,,,0.02,0.0,meteohub,2013-07-13 01:21:00,
2013-07-12 21:26:00,75.0,73.8,29.88,SE,134,0.0,0.0,96,0.01,,,0.02,0.0,meteohub,2013-07-13 01:26:00,
2013-07-12 21:31:00,75.0,73.8,29.88,SE,134,0.0,0.0,96,0.01,,,0.02,0.0,meteohub,2013-07-13 01:31:00,
2013-07-12 21:37:00,75.0,73.8,29.88,SE,134,0.0,0.0,96,0.01,,,0.02,0.0,meteohub,2013-07-13 01:37:00,
2013-07-12 21:42:00,75.0,73.8,29.88,SE,134,0.0,0.0,96,0.01,,,0.02,0.0,meteohub,2013-07-13 01:42:00,
2013-07-12 21:47:00,75.0,73.8,29.88,SE,134,0.0,0.0,96,0.01,,,0.02,0.0,meteohub,2013-07-13 01:47:00,
2013-07-12 21:52:00,75.0,73.8,29.88,SE,134,0.0,0.0,96,0.00,,,0.02,0.0,meteohub,2013-07-13 01:52:00,
2013-07-12 21:57:00,75.1,74.0,29.89,SE,134,0.0,-999.0,96,-99.99,,,0.02,0,weatherlink.com 1.10,2013-07-13 01:57:00,
2013-07-12 22:02:00,75.0,73.8,29.89,SE,134,0.0,0.0,96,0.00,,,0.02,0.0,meteohub,2013-07-13 02:02:00,
2013-07-12 22:07:00,75.0,73.8,29.89,SE,134,0.0,0.0,96,0.00,,,0.02,0.0,meteohub,2013-07-13 02:07:00,
2013-07-12 22:13:00,75.0,73.8,29.89,SE,134,0.0,0.0,96,0.00,,,0.02,0.0,meteohub,2013-07-13 02:13:00,
2013-07-12 22:18:00,75.0,74.1,29.90,SE,134,0.0,0.0,97,0.00,,,0.02,0.0,meteohub,2013-07-13 02:18:00,
2013-07-12 22:23:00,75.2,74.3,29.90,SE,134,0.0,0.0,97,0.00,,,0.02,0.0,meteohub,2013-07-13 02:23:00,
2013-07-12 22:28:00,75.2,74.3,29.90,SE,134,0.0,0.0,97,0.00,,,0.02,0.0,meteohub,2013-07-13 02:28:00,
2013-07-12 22:34:00,75.2,74.3,29.90,SE,134,0.0,0.0,97,0.00,,,0.02,0.0,meteohub,2013-07-13 02:34:00,
2013-07-12 22:39:00,75.2,74.3,29.90,SE,134,0.0,0.0,97,0.00,,,0.02,0.0,meteohub,2013-07-13 02:39:00,
2013-07-12 22:44:00,75.2,74.3,29.90,SE,134,0.0,0.0,97,0.00,,,0.02,0.0,meteohub,2013-07-13 02:44:00,
2013-07-12 22:50:00,75.2,74.3,29.90,SE,134,0.0,0.0,97,0.00,,,0.02,0.0,meteohub,2013-07-13 02:50:00,
2013-07-12 22:55:00,75.2,74.3,29.90,SE,134,0.0,0.0,97,0.00,,,0.02,0.0,meteohub,2013-07-13 02:55:00,
2013-07-12 23:00:00,75.4,74.5,29.90,SE,134,0.0,0.0,97,0.00,,,0.02,0.0,meteohub,2013-07-13 03:00:00,
2013-07-12 23:05:00,75.4,74.5,29.89,SE,134,0.0,0.0,97,0.00,,,0.02,0.0,meteohub,2013-07-13 03:05:00,
2013-07-12 23:10:00,75.2,74.3,29.89,SE,134,0.0,0.0,97,0.00,,,0.02,0.0,meteohub,2013-07-13 03:10:00,
2013-07-12 23:15:00,75.0,74.1,29.89,SE,134,0.0,0.0,97,0.00,,,0.02,0.0,meteohub,2013-07-13 03:15:00,
2013-07-12 23:21:00,75.0,74.1,29.89,SE,134,0.0,0.0,97,0.00,,,0.02,0.0,meteohub,2013-07-13 03:21:00,
2013-07-12 23:26:00,75.0,74.1,29.89,SE,134,0.0,0.0,97,0.00,,,0.02,0.0,meteohub,2013-07-13 03:26:00,
2013-07-12 23:31:00,74.8,73.9,29.89,SE,134,0.0,0.0,97,0.00,,,0.02,0.0,meteohub,2013-07-13 03:31:00,
2013-07-12 23:36:00,74.8,73.9,29.89,SE,134,0.0,0.0,97,0.00,,,0.02,0.0,meteohub,2013-07-13 03:36:00,
2013-07-12 23:41:00,74.8,73.9,29.89,SE,134,0.0,0.0,97,0.00,,,0.02,0.0,meteohub,2013-07-13 03:41:00,
2013-07-12 23:46:00,74.7,73.8,29.89,SE,134,0.0,0.0,97,0.00,,,0.02,0.0,meteohub,2013-07-13 03:46:00,
2013-07-12 23:52:00,74.7,73.8,29.89,SE,134,0.0,0.0,97,0.00,,,0.02,0.0,meteohub,2013-07-13 03:52:00,
2013-07-12 23:57:00,74.7,73.8,29.89,SE,134,0.0,0.0,97,0.00,,,0.02,0.0,meteohub,2013-07-13 03:57:00,